Location: Buena Vista
(37.7110°N, 119.7938°W)
Time: 19:15:36
(UTC+00:00)

Envisat - Pass Details

Date: 21 August 2024
Orbit: 762 x 764 km, 98.3° (Epoch: 12 September)

Event Time Altitude Azimuth Distance (km) Brightness Sun altitude
Rises 09:56:49 0° 32° (NNE) 3,231 7.3 -33.6°
Reaches altitude 10° 09:59:59 10° 53° (NE) 2,300 6.2 -33.3°
Maximum altitude 10:03:09 17° 92° (E) 1,877 5.3 -32.9°
Enters shadow 10:04:05 16° 106° (ESE) 1,916 5.2 -32.8°
